Overview Statistics Trail Chart Weather Telemetry Raw packets
 

This is the latest recevied weather packets stored in our database for station/object DH2PG-6. If no packets are shown the sender has not sent any weather packets the latest 10 day(s).

<< 18 19 20 21 22 23 24 >>
Time Temp. Humidity Pressure Rain* Wind** Luminosity Snow
1788514525 22.78° C 75% 1013.4 hPa 0 mm - - -
1788514224 22.78° C 77% 1013.2 hPa 0 mm - - -
1788513924 22.22° C 78% 1013 hPa 0 mm - - -
1788513624 22.22° C 79% 1013 hPa 0 mm - - -
1788513023 21.67° C 81% 1013.3 hPa 0 mm - - -
1788512723 21.11° C 81% 1013.3 hPa 0 mm - - -
1788512423 21.11° C 82% 1013.3 hPa 0 mm - - -
1788512122 21.11° C 82% 1013.3 hPa 0 mm - - -
1788511822 20.56° C 82% 1013.4 hPa 0 mm - - -
1788511522 20.56° C 82% 1013.5 hPa 0 mm - - -
1788511222 20.56° C 82% 1013.6 hPa 0 mm - - -
1788510921 20.56° C 82% 1013.6 hPa 0 mm - - -
1788510621 20.56° C 82% 1013.5 hPa 0 mm - - -
1788510321 21.11° C 83% 1013.5 hPa 0 mm - - -
1788510020 21.11° C 83% 1013.5 hPa 0 mm - - -
1788509720 21.11° C 83% 1013.6 hPa 0 mm - - -
1788509420 21.11° C 84% 1013.7 hPa 0 mm - - -
1788509120 21.11° C 85% 1013.7 hPa 0 mm - - -
1788508519 20.56° C 86% 1013.9 hPa 0 mm - - -
1788507918 20.56° C 86% 1013.9 hPa 0 mm - - -
1788507618 20.56° C 87% 1014 hPa 0 mm - - -
1788507318 20.56° C 88% 1014 hPa 0 mm - - -
1788507018 20° C 88% 1013.9 hPa 0 mm - - -
1788506717 20° C 89% 1014.1 hPa 0 mm - - -
1788506417 19.44° C 89% 1014 hPa 0 mm - - -

* Rain latest hour (hover to see other rain measurements)
** Current wind speed in m/s (hover to see current wind gust speed)